Orbital elements:
2012 BD27 Earth MOID = 0.4639 AU
Epoch 2012 Mar. 14.0 TT = JDT 2456000.5 MPC
M 355.68911 (2000.0) P Q
n 0.25695302 Peri. 60.06276 -0.81773772 +0.10634003
a 2.4503807 Node 120.01616 -0.12984992 -0.99153279
e 0.4817779 Incl. 40.79091 +0.56075308 -0.07452870
P 3.84 H 19.8 G 0.15 U 8